Regional Weather Roundup
Issued by NWS Kansas City/Pleasant Hill, MO

Home | Current Version | Previous Version | Graphics & Text | Print | Product List | Glossary Off
Versions: 1 2 3 4 5 6 7 8 9 10 11 12 13 14 15 16 17 18 19 20 21 22 23 24 25 26 27 28 29 30 31 32 33 34 35 36 37 38 39 40 41 42 43 44 45 46 47 48 49 50

318
ASUS43 KEAX 241710
RWREAX

WEATHER ROUNDUP FOR EASTERN KANSAS AND NORTHWEST MISSOURI
NATIONAL WEATHER SERVICE KANSAS CITY/PLEASANT HILL MO
1200 PM CDT SAT JUN 24 2017

KSZ040-057-103>105-MOZ028-029-037-043-241800-
...KANSAS CITY METROPOLITAN AREA...

CITY           SKY/WX    TMP DP  RH WIND       PRES   REMARKS
K.C. INTL      MOSUNNY   74  47  38 NW6       30.25R
K.C. DOWNTOWN  SUNNY     76  41  28 NW8       30.23S
LEES SUMMIT    SUNNY     74  41  30 N12       30.24F
OLATHE - IXD   SUNNY     75  43  31 NE9       30.26S
OLATHE - OJC   SUNNY     74  39  28 N10       30.25S
LAWRENCE       SUNNY     75  43  31 VRB5      30.25S

$$

MOZ001>008-011>017-020>025-030>033-038>040-044>046-053-054-241800-
...NORTHERN AND CENTRAL MISSOURI...

CITY           SKY/WX    TMP DP  RH WIND       PRES   REMARKS
ST. JOSEPH     SUNNY     75  43  31 NW12      30.23S
MOSBY          SUNNY     72  37  28 NW6       30.24R
WARRENSBURG    SUNNY     72  41  33 N12G18    30.22S
WHITEMAN AFB   SUNNY     74  41  31 NW9G21    30.21R
CLINTON        SUNNY     75  45  33 N15       30.23S
SEDALIA        SUNNY     75  48  38 NW13      30.22R
WARSAW         NOT AVBL
CHILLICOTHE      N/A     74  43  32 NW5       30.22S
KIRKSVILLE     SUNNY     72  44  36 NW10      30.20R

$$

MOZ041-047>049-056>058-063>065-088>090-097-241800-
...EASTERN AND SOUTHERN MISSOURI...

CITY           SKY/WX    TMP DP  RH WIND       PRES   REMARKS
ST. LOUIS INTL MOSUNNY   77  47  34 NW14G21   30.14S
SPIRIT OF STL  MOSUNNY   75  49  39 NW12G22   30.14R
COLUMBIA       SUNNY     75  48  38 N17       30.18S
JEFFERSON CITY SUNNY     75  46  35 NW12G24   30.17S
ROLLA          SUNNY     73  49  42 NW15      30.18R
OSAGE BEACH    SUNNY     74  49  41 NW12G17   30.20S
SPRINGFIELD    SUNNY     74  51  44 N7G17     30.21S
BRANSON        PTSUNNY   75  55  50 N8        30.22S
JOPLIN         MOSUNNY   78  55  44 N7        30.23F
WEST PLAINS    MOSUNNY   76  52  43 VRB6      30.19S

$$

IAZ060-094-KSZ022-034>040-054-083-096-NEZ052-066-093-241800-
...KANSAS...SOUTHEAST NEBRASKA AND IOWA...

CITY           SKY/WX    TMP DP  RH WIND       PRES   REMARKS
TOPEKA         SUNNY     75  44  33 VRB5      30.25S
MANHATTAN      SUNNY     78  41  26 NE10      30.25F
EMPORIA        MOSUNNY   73  43  33 VRB5      30.26R
CHANUTE        SUNNY     79  43  27 N9G20     30.24
WICHITA        PTSUNNY   76  53  44 VRB3      30.26F
OMAHA          MOSUNNY   76  40  27 W12       30.17F
LINCOLN        SUNNY     76  37  24 NW9       30.22S
FALLS CITY     SUNNY     73  43  33 W8        30.23S
LAMONI         SUNNY     72  43  35 NW12G20   30.20R
DES MOINES     MOSUNNY   72  38  29 NW14      30.16R

$$





USA.gov is the U.S. government's official web portal to all federal, state and local government web resources and services.